Location: *
(45.9500°N, 9.0833°E)
Time: 20:14:55
(UTC+00:00)

OBJECT-B - Pass Details

Date: 03 March 2021
Orbit: 414 x 427 km, 97.0° (Epoch: 11 April)

Event Time Altitude Azimuth Distance (km) Brightness Sun altitude
Exits shadow 18:05:12 11° 59° (ENE) 1,458 3.0 -9.8°
Drops below altitude 10° 18:05:53 10° 47° (NE) 1,513 3.1 -10.0°
Sets 18:09:10 0° 10° (N) 2,381 4.5 -10.5°
